Location: Poughquag
(41.6090°N, 73.6820°W)
Time: 16:05:40
(UTC-04:00)

Amateur Radio Satellites - All Passes

Search period start: 23 March 2017 15:35
Search period end: 24 March 2017 15:35
Location: Poughquag, 41.6090°N, 73.6820°W

Satellite Date Start Highest point End Downlink Frequencies (MHz)
Time Altitude Azimuth
MOZHAYETS 4 23 Mar 16:01:32 16:05:51 40° 98° (E) 16:10:07
NO-84 23 Mar 16:03:50 16:06:56 34° 227° (SW) 16:10:16 435.350 FM
AO-7 23 Mar 16:06:27 16:14:37 58° 257° (WSW) 16:22:49 .
KKS-1 23 Mar 16:11:49 16:12:24 10° 89° (E) 16:12:58 437.445
RS-15 23 Mar 16:43:16 16:53:44 31° 334° (NNW) 17:04:21 29.354- 29.394
CUBESAT XI-V 23 Mar 16:44:48 16:48:10 20° 93° (E) 16:51:33 437.345
BEESAT 23 Mar 16:50:51 16:54:55 28° 293° (WNW) 16:58:57 436.000
SO-50 23 Mar 16:54:32 16:58:50 36° 311° (NW) 17:03:06 436.795
STARS 23 Mar 16:56:19 16:58:42 14° 91° (E) 17:01:04 437.465
CUTE-I 23 Mar 16:59:13 17:02:28 17° 60° (ENE) 17:05:44 437.470
XW-2B 23 Mar 17:01:31 17:02:07 10° 63° (ENE) 17:02:44 145.730 - 145.750
ITUPSAT 1 23 Mar 17:05:02 17:08:39 22° 295° (WNW) 17:12:15 437.325
XW-2C 23 Mar 17:10:06 17:12:02 14° 65° (ENE) 17:13:57 145.795 - 145.815
KAITUO 1B 23 Mar 17:10:30 17:11:18 11° 64° (ENE) 17:12:06 145.475/437.950
MOZHAYETS 4 23 Mar 17:39:22 17:42:43 20° 295° (WNW) 17:46:03
KKS-1 23 Mar 17:44:57 17:49:27 75° 285° (WNW) 17:53:54 437.445
YUBILEINY 23 Mar 17:56:06 18:02:30 22° 64° (ENE) 18:08:50 435.215
LilacSat-2 23 Mar 17:57:34 18:01:17 50° 74° (ENE) 18:05:02 437.200
HO-68 23 Mar 18:00:48 18:05:53 21° 56° (NE) 18:10:56 435.675
O/OREOS (USA 219) 23 Mar 18:01:57 18:06:28 90° 57° (ENE) 18:11:03 437.305
XW-2F 23 Mar 18:02:31 18:06:13 53° 74° (ENE) 18:09:56 145.980 - 146.000
DOVE 4 23 Mar 18:05:53 18:10:27 82° 76° (ENE) 18:15:21 437.250
CUBESAT XI-V 23 Mar 18:21:21 18:25:42 42° 289° (WNW) 18:30:04 437.345
XW-2D 23 Mar 18:26:08 18:29:56 70° 258° (WSW) 18:33:45 145.860 - 145.880
M-CUBED/EXP-1 PRIME 23 Mar 18:26:45 18:30:10 20° 98° (E) 18:33:37 437.505
STARS 23 Mar 18:31:02 18:35:22 53° 287° (WNW) 18:39:39 437.465
XW-2B 23 Mar 18:32:01 18:35:47 61° 259° (W) 18:39:35 145.730 - 145.750
CUTE-I 23 Mar 18:36:33 18:41:54 72° 258° (WSW) 18:47:17 437.470
NUDT-PHONESAT 23 Mar 18:38:12 18:41:56 63° 260° (W) 18:45:39 437.300
KAITUO 1B 23 Mar 18:41:07 18:44:49 57° 260° (W) 18:48:32 145.475/437.950
XW-2C 23 Mar 18:42:11 18:45:51 44° 261° (W) 18:49:31 145.795 - 145.815
RS-15 23 Mar 19:02:14 19:11:45 24° 9° (N) 19:21:09 29.354- 29.394
PCSat 23 Mar 19:14:39 19:19:47 41° 53° (NE) 19:24:55 145.827
AAUSAT CUBESAT 2 23 Mar 19:16:09 19:18:28 15° 65° (ENE) 19:20:48 437.432
CUTE 1.7 + AOD 2 23 Mar 19:19:49 19:23:53 50° 74° (ENE) 19:27:58 437.475
SEEDS 23 Mar 19:19:53 19:23:37 33° 70° (ENE) 19:27:20 437.485
STRAND 1 23 Mar 19:28:09 19:32:12 23° 94° (E) 19:36:13 437.568
LilacSat-2 23 Mar 19:34:40 19:35:51 11° 270° (W) 19:37:03 437.200
UWE-3 23 Mar 19:36:54 19:40:41 25° 68° (ENE) 19:44:26 435.000/436.395/437.385
XW-2F 23 Mar 19:40:02 19:40:41 10° 270° (W) 19:41:19 145.980 - 146.000
XW-2A 23 Mar 19:43:58 19:47:22 54° 260° (W) 19:50:46 145.665 - 145.685
O/OREOS (USA 219) 23 Mar 19:45:08 19:46:35 11° 311° (NW) 19:48:02 437.305
HO-68 23 Mar 19:45:38 19:52:48 80° 255° (WSW) 20:00:00 435.675
YUBILEINY 23 Mar 19:51:38 20:00:21 82° 265° (W) 20:09:03 435.215
M-CUBED/EXP-1 PRIME 23 Mar 20:00:21 20:04:43 45° 293° (WNW) 20:09:10 437.505
CUBEBUG 2 23 Mar 20:02:14 20:06:58 71° 75° (ENE) 20:11:43 437.445
Oscar 11 23 Mar 20:24:05 20:27:57 33° 70° (ENE) 20:31:49 .
ZACube-1 23 Mar 20:24:44 20:29:04 44° 72° (ENE) 20:33:23 437.345
AAUSAT CUBESAT 2 23 Mar 20:49:36 20:53:32 46° 261° (W) 20:57:31 437.432
AO-73 23 Mar 20:54:54 20:59:28 85° 77° (ENE) 21:03:59 145.935
SEEDS 23 Mar 20:56:15 20:59:22 20° 267° (W) 21:02:28 437.485
AO-85 23 Mar 20:57:19 21:00:09 17° 112° (ESE) 21:02:54 145.980
CUTE 1.7 + AOD 2 23 Mar 20:57:55 21:00:01 13° 269° (W) 21:02:07 437.475
PCSat 23 Mar 20:58:22 21:03:00 29° 251° (WSW) 21:07:36 145.827
Tancredo 1 23 Mar 20:58:56 21:00:01 11° 129° (SE) 21:01:05 437.200
DELFI C3 23 Mar 21:04:20 21:07:35 26° 69° (ENE) 21:10:52 145.870
STRAND 1 23 Mar 21:06:43 21:11:32 42° 290° (WNW) 21:16:18 437.568
UWE-3 23 Mar 21:12:41 21:16:56 34° 263° (W) 21:21:12 435.000/436.395/437.385
RS-15 23 Mar 21:16:43 21:28:31 47° 42° (NE) 21:39:51 29.354- 29.394
HO-68 23 Mar 21:38:27 21:41:33 13° 272° (W) 21:44:40 435.675
CUBEBUG 2 23 Mar 21:42:06 21:44:01 12° 271° (W) 21:45:57 437.445
YUBILEINY 23 Mar 21:51:10 21:55:40 15° 285° (WNW) 22:00:11 435.215
UNISAT 6 23 Mar 21:52:47 21:54:51 13° 90° (E) 21:56:54 437.425
FO-29 23 Mar 21:58:01 21:58:54 10° 83° (E) 21:59:47 435.910
Oscar 11 23 Mar 22:00:47 22:04:08 22° 266° (W) 22:07:29 .
ZACube-1 23 Mar 22:02:24 22:05:32 18° 268° (W) 22:08:38 437.345
PRISM 23 Mar 22:02:58 22:06:44 33° 97° (E) 22:10:29 437.425
LO-87 23 Mar 22:05:36 22:07:37 14° 66° (ENE) 22:09:38 145.935 - 145.965
ESTCUBE 1 23 Mar 22:14:38 22:16:44 13° 62° (ENE) 22:18:50 437.505/2401.250
ISS 23 Mar 22:17:58 22:21:12 67° 141° (SE) 22:24:27 437.550
Tancredo 1 23 Mar 22:32:33 22:35:42 78° 323° (NW) 22:38:55 437.200
AO-85 23 Mar 22:35:57 22:40:15 50° 306° (NW) 22:44:17 145.980
DELFI C3 23 Mar 22:39:13 22:42:20 23° 265° (W) 22:45:29 145.870
SPROUT 23 Mar 23:13:21 23:15:36 14° 63° (ENE) 23:17:51 437.525
TIGRISAT 23 Mar 23:18:20 23:22:48 78° 284° (WNW) 23:27:08 435.000
UNISAT 6 23 Mar 23:27:34 23:31:58 57° 287° (WNW) 23:36:13 437.425
RS-15 23 Mar 23:29:36 23:41:33 62° 247° (WSW) 23:52:57 29.354- 29.394
DX 1 23 Mar 23:30:02 23:31:00 11° 60° (ENE) 23:31:58 434.975-435.025
POLYITAN 1 23 Mar 23:30:28 23:31:50 11° 90° (E) 23:33:11 437.675
QB50P2 23 Mar 23:34:10 23:36:23 14° 91° (E) 23:38:36 145.880/145.840
BEESAT 3 23 Mar 23:37:00 23:40:54 74° 120° (ESE) 23:44:53 437.485
LO-87 23 Mar 23:37:26 23:40:45 35° 262° (W) 23:44:07 145.935 - 145.965
PRISM 23 Mar 23:38:41 23:41:49 21° 293° (WNW) 23:44:57 437.425
FO-29 23 Mar 23:38:56 23:45:11 85° 102° (ESE) 23:50:42 435.910
VELOX 1 23 Mar 23:39:06 23:42:58 31° 69° (ENE) 23:46:51 145.980
SO-50 23 Mar 23:45:13 23:49:07 27° 46° (NE) 23:52:58 436.795
BEESAT 2 23 Mar 23:45:47 23:49:23 34° 116° (ESE) 23:53:03 435.950
ESTCUBE 1 23 Mar 23:48:33 23:52:59 65° 258° (WSW) 23:57:27 437.505/2401.250
DUCHIFAT 1 23 Mar 23:50:57 23:53:37 16° 92° (E) 23:56:15 145.980
ISS 23 Mar 23:55:13 23:57:55 23° 340° (NNW) 00:00:38 437.550
Tancredo 1 24 Mar 00:09:56 00:12:17 19° 344° (NNW) 00:14:38 437.200
UKube-1 24 Mar 00:13:56 00:17:15 22° 66° (ENE) 00:20:35 .
BUGSAT 1 24 Mar 00:21:12 00:22:30 11° 90° (E) 00:23:47 437.445
AIST 2D 24 Mar 00:28:38 00:32:08 72° 283° (WNW) 00:35:34 435.315
NANOSAT C BR1 24 Mar 00:34:06 00:38:17 55° 100° (E) 00:42:24 145.865
EO-79 24 Mar 00:36:37 00:40:51 65° 101° (E) 00:45:02 145.935-145.965
SPROUT 24 Mar 00:46:48 00:51:02 56° 260° (W) 00:55:18 437.525
50 SAT 24 Mar 00:49:36 00:53:00 60° 259° (W) 00:56:26 437.505
DX 1 24 Mar 01:02:11 01:06:31 79° 257° (WSW) 01:10:53 434.975-435.025
POLYITAN 1 24 Mar 01:03:49 01:08:01 61° 286° (WNW) 01:12:10 437.675
QB50P2 24 Mar 01:08:21 01:12:28 50° 287° (WNW) 01:16:33 145.880/145.840
VELOX 1 24 Mar 01:15:50 01:19:24 24° 265° (W) 01:23:02 145.980
BEESAT 3 24 Mar 01:16:54 01:19:00 14° 320° (NW) 01:21:06 437.485
BEESAT 2 24 Mar 01:24:01 01:27:14 23° 314° (NW) 01:30:29 435.950
DUCHIFAT 1 24 Mar 01:25:29 01:29:29 42° 288° (WNW) 01:33:26 145.980
SO-50 24 Mar 01:25:30 01:29:38 36° 244° (WSW) 01:33:43 436.795
FO-29 24 Mar 01:25:49 01:29:14 15° 305° (NW) 01:32:29 435.910
ISS 24 Mar 01:33:23 01:35:16 14° 0° (N) 01:37:10 437.550
RS-15 24 Mar 01:47:26 01:51:11 12° 268° (W) 01:54:53 29.354- 29.394
Tancredo 1 24 Mar 01:47:34 01:49:22 14° 4° (N) 01:51:10 437.200
UKube-1 24 Mar 01:49:10 01:53:04 33° 262° (W) 01:57:01 .
BUGSAT 1 24 Mar 01:54:06 01:58:15 60° 286° (WNW) 02:02:19 437.445
Gurwin Techsat 1B 24 Mar 01:55:25 01:59:31 22° 93° (E) 02:03:36 435.225
Oscar 19 24 Mar 02:05:07 02:10:07 47° 99° (E) 02:15:05 437.125/150
NANOSAT C BR1 24 Mar 02:11:22 02:13:31 14° 297° (WNW) 02:15:39 145.865
EO-79 24 Mar 02:14:24 02:16:03 12° 298° (WNW) 02:17:41 145.935-145.965
BEESAT 24 Mar 02:19:23 02:23:45 37° 69° (ENE) 02:28:08 436.000
ITUPSAT 1 24 Mar 02:33:14 02:37:51 50° 71° (ENE) 02:42:29 437.325
O/OREOS (USA 219) 24 Mar 02:33:18 02:36:43 20° 55° (NE) 02:40:06 437.305
MOZHAYETS 4 24 Mar 03:03:20 03:07:37 40° 71° (ENE) 03:11:54
ISS 24 Mar 03:09:52 03:12:37 24° 20° (NNE) 03:15:22 437.550
KKS-1 24 Mar 03:10:01 03:11:17 11° 60° (ENE) 03:12:34 437.445
Tancredo 1 24 Mar 03:23:26 03:26:18 29° 24° (NNE) 03:29:09 437.200
Gurwin Techsat 1B 24 Mar 03:34:36 03:39:41 47° 290° (WNW) 03:44:44 435.225
Oscar 19 24 Mar 03:45:11 03:49:06 22° 296° (WNW) 03:53:01 437.125/150
ITAMSAT 1 24 Mar 03:45:31 03:50:23 39° 98° (E) 03:55:11 435.822/435.867
CUBESAT XI-V 24 Mar 03:48:30 03:51:50 20° 66° (ENE) 03:55:11 437.345
STARS 24 Mar 03:53:28 03:55:48 14° 62° (ENE) 03:58:10 437.465
BEESAT 24 Mar 03:57:47 04:01:36 24° 265° (W) 04:05:27 436.000
AO-7 24 Mar 04:07:40 04:15:38 49° 101° (E) 04:23:34 .
O/OREOS (USA 219) 24 Mar 04:11:57 04:16:21 45° 253° (WSW) 04:20:44 437.305
ITUPSAT 1 24 Mar 04:12:44 04:15:56 18° 267° (W) 04:19:09 437.325
MOZHAYETS 4 24 Mar 04:41:30 04:44:54 20° 267° (W) 04:48:20
KKS-1 24 Mar 04:42:44 04:47:10 80° 256° (WSW) 04:51:41 437.445
ISS 24 Mar 04:46:03 04:49:20 64° 217° (SW) 04:52:36 437.550
Tancredo 1 24 Mar 04:59:29 05:02:31 40° 221° (SW) 05:05:33 437.200
M-CUBED/EXP-1 PRIME 24 Mar 05:13:19 05:16:05 20° 60° (ENE) 05:19:00 437.505
CUBESAT XI-V 24 Mar 05:24:35 05:28:55 41° 262° (W) 05:33:17 437.345
ITAMSAT 1 24 Mar 05:25:20 05:29:38 27° 295° (WNW) 05:33:55 435.822/435.867
STARS 24 Mar 05:27:17 05:31:38 59° 259° (WSW) 05:36:02 437.465
AO-85 24 Mar 05:27:26 05:29:55 16° 43° (NE) 05:32:25 145.980
XW-2D 24 Mar 06:00:33 06:01:49 11° 91° (E) 06:03:04 145.860 - 145.880
AO-7 24 Mar 06:00:42 06:08:14 40° 300° (WNW) 06:15:43 .
DOVE 4 24 Mar 06:04:43 06:09:06 26° 93° (E) 06:13:26 437.250
XW-2B 24 Mar 06:05:56 06:07:43 13° 91° (E) 06:09:30 145.730 - 145.750
NUDT-PHONESAT 24 Mar 06:10:34 06:11:50 11° 91° (E) 06:13:05 437.300
KAITUO 1B 24 Mar 06:13:43 06:15:26 13° 91° (E) 06:17:10 145.475/437.950
XW-2C 24 Mar 06:15:20 06:17:52 17° 93° (E) 06:20:24 145.795 - 145.815
STRAND 1 24 Mar 06:43:57 06:48:34 35° 68° (ENE) 06:53:13 437.568
M-CUBED/EXP-1 PRIME 24 Mar 06:47:13 06:50:21 28° 259° (W) 06:53:44 437.505
CUTE-I 24 Mar 06:53:29 06:58:38 45° 99° (E) 07:03:44 437.470
YUBILEINY 24 Mar 06:58:30 07:05:01 24° 80° (E) 07:11:30 435.215
LilacSat-2 24 Mar 07:04:35 07:08:23 76° 103° (ESE) 07:12:07 437.200
AO-85 24 Mar 07:06:46 07:10:37 55° 241° (WSW) 07:14:35 145.980
XW-2F 24 Mar 07:08:24 07:12:10 79° 102° (ESE) 07:15:52 145.980 - 146.000
HO-68 24 Mar 07:14:30 07:19:25 19° 91° (E) 07:24:18 435.675
NO-84 24 Mar 07:22:54 07:25:06 20° 130° (SE) 07:27:17 435.350 FM
XW-2D 24 Mar 07:32:40 07:36:16 46° 287° (WNW) 07:39:52 145.860 - 145.880
XW-2B 24 Mar 07:38:35 07:42:07 41° 287° (WNW) 07:45:38 145.730 - 145.750
DOVE 4 24 Mar 07:41:54 07:46:52 42° 290° (WNW) 07:51:47 437.250
NUDT-PHONESAT 24 Mar 07:42:29 07:46:00 44° 287° (WNW) 07:49:30 437.300
KAITUO 1B 24 Mar 07:46:11 07:49:40 40° 287° (WNW) 07:53:07 145.475/437.950
XW-2C 24 Mar 07:48:49 07:52:08 30° 289° (WNW) 07:55:26 145.795 - 145.815
BEESAT 3 24 Mar 07:53:40 07:57:33 44° 53° (NE) 08:01:23 437.485
CUBEBUG 2 24 Mar 07:54:45 07:57:07 14° 90° (E) 07:59:27 437.445
BEESAT 2 24 Mar 08:03:14 08:06:38 25° 47° (NE) 08:10:00 435.950
STRAND 1 24 Mar 08:23:18 08:27:45 29° 264° (W) 08:32:12 437.568
AAUSAT CUBESAT 2 24 Mar 08:31:38 08:35:04 25° 95° (E) 08:38:29 437.432
CUTE-I 24 Mar 08:34:08 08:38:23 24° 296° (WNW) 08:42:36 437.470
SEEDS 24 Mar 08:38:21 08:42:31 63° 101° (E) 08:46:40 437.485
XW-2A 24 Mar 08:38:25 08:41:44 51° 286° (WNW) 08:45:00 145.665 - 145.685
CUTE 1.7 + AOD 2 24 Mar 08:39:52 08:44:05 80° 285° (WNW) 08:48:18 437.475
TIGRISAT 24 Mar 08:43:56 08:45:02 11° 60° (ENE) 08:46:08 435.000
AO-73 24 Mar 08:44:13 08:46:41 15° 91° (E) 08:49:07 145.935
UNISAT 6 24 Mar 08:51:45 08:54:12 14° 62° (ENE) 08:56:39 437.425
YUBILEINY 24 Mar 08:52:11 09:00:56 72° 280° (W) 09:09:40 435.215
PRISM 24 Mar 08:52:39 08:55:56 24° 68° (ENE) 08:59:15 437.425
NO-84 24 Mar 08:59:58 09:02:30 29° 327° (NNW) 09:05:05 435.350 FM
HO-68 24 Mar 09:00:39 09:07:49 77° 288° (WNW) 09:14:58 435.675
UWE-3 24 Mar 09:01:54 09:06:07 46° 99° (E) 09:10:11 435.000/436.395/437.385
CUBEBUG 2 24 Mar 09:29:45 09:34:06 51° 287° (WNW) 09:38:16 437.445
BEESAT 3 24 Mar 09:32:13 09:34:48 17° 249° (WSW) 09:37:21 437.485
BEESAT 2 24 Mar 09:40:47 09:44:26 33° 245° (WSW) 09:48:04 435.950
Oscar 11 24 Mar 09:46:26 09:50:44 66° 102° (ESE) 09:55:00 .
FO-29 24 Mar 09:48:52 09:56:09 44° 67° (ENE) 10:03:05 435.910
ZACube-1 24 Mar 09:48:53 09:53:10 89° 284° (WNW) 09:57:21 437.345
PCSat 24 Mar 09:56:39 10:01:30 35° 111° (ESE) 10:06:23 145.827
AAUSAT CUBESAT 2 24 Mar 10:07:00 10:10:28 26° 291° (WNW) 10:13:57 437.432
DELFI C3 24 Mar 10:15:06 10:18:52 40° 98° (E) 10:22:37 145.870
SEEDS 24 Mar 10:16:04 10:17:40 12° 297° (WNW) 10:19:16 437.485
TIGRISAT 24 Mar 10:16:16 10:20:59 89° 260° (W) 10:25:42 435.000
AO-73 24 Mar 10:19:07 10:23:11 44° 288° (WNW) 10:27:07 145.935
UNISAT 6 24 Mar 10:25:41 10:30:21 67° 259° (W) 10:35:02 437.425
PRISM 24 Mar 10:27:40 10:31:06 27° 264° (W) 10:34:36 437.425
QB50P2 24 Mar 10:27:51 10:29:28 12° 62° (ENE) 10:31:05 145.880/145.840
UWE-3 24 Mar 10:39:28 10:42:10 16° 296° (WNW) 10:44:47 435.000/436.395/437.385
DUCHIFAT 1 24 Mar 10:43:38 10:45:44 14° 63° (ENE) 10:47:51 145.980
HO-68 24 Mar 10:50:26 10:54:24 16° 308° (NW) 10:58:23 435.675
YUBILEINY 24 Mar 10:55:02 10:59:29 15° 302° (WNW) 11:03:56 435.215
AIST 2D 24 Mar 11:03:00 11:06:19 37° 73° (ENE) 11:09:37 435.315
LO-87 24 Mar 11:04:54 11:07:19 17° 93° (E) 11:09:42 145.935 - 145.965
Oscar 11 24 Mar 11:24:37 11:26:18 12° 298° (WNW) 11:27:59 .
NANOSAT C BR1 24 Mar 11:26:01 11:30:01 41° 72° (ENE) 11:34:02 145.865
EO-79 24 Mar 11:28:46 11:32:52 48° 73° (ENE) 11:37:01 145.935-145.965
FO-29 24 Mar 11:33:46 11:41:05 42° 263° (W) 11:48:08 435.910
PCSat 24 Mar 11:39:54 11:44:51 35° 308° (NW) 11:49:51 145.827
ESTCUBE 1 24 Mar 11:41:08 11:44:53 25° 95° (E) 11:48:36 437.505/2401.250
RS-15 24 Mar 11:43:26 11:51:57 24° 99° (E) 12:00:38 29.354- 29.394
DELFI C3 24 Mar 11:50:53 11:53:20 16° 294° (WNW) 11:55:47 145.870
POLYITAN 1 24 Mar 11:55:53 12:00:10 82° 257° (WSW) 12:04:30 437.675
QB50P2 24 Mar 12:00:25 12:04:41 68° 258° (WSW) 12:08:58 145.880/145.840
DUCHIFAT 1 24 Mar 12:16:44 12:20:55 58° 260° (W) 12:25:08 145.980
SPROUT 24 Mar 12:32:46 12:36:14 23° 94° (E) 12:39:40 437.525
LO-87 24 Mar 12:37:34 12:40:49 30° 289° (WNW) 12:44:02 145.935 - 145.965
AIST 2D 24 Mar 12:38:07 12:39:42 12° 268° (W) 12:41:17 435.315
BUGSAT 1 24 Mar 12:43:11 12:47:25 88° 262° (W) 12:51:42 437.445
DX 1 24 Mar 12:51:06 12:54:03 17° 93° (E) 12:56:58 434.975-435.025
NANOSAT C BR1 24 Mar 13:03:05 13:05:54 17° 267° (W) 13:08:43 145.865
VELOX 1 24 Mar 13:04:28 13:08:53 60° 101° (E) 13:13:17 145.980
EO-79 24 Mar 13:06:29 13:08:54 15° 269° (W) 13:11:19 145.935-145.965
Gurwin Techsat 1B 24 Mar 13:16:25 13:21:14 36° 68° (ENE) 13:26:05 435.225
ESTCUBE 1 24 Mar 13:17:42 13:21:40 31° 291° (WNW) 13:25:37 437.505/2401.250
AO-7 24 Mar 13:18:55 13:23:28 16° 46° (NE) 13:28:01 .
Oscar 19 24 Mar 13:22:03 13:27:08 71° 74° (ENE) 13:32:14 437.125/150
UKube-1 24 Mar 13:35:32 13:39:34 36° 98° (E) 13:43:34 .
50 SAT 24 Mar 13:46:30 13:49:58 57° 285° (WNW) 13:53:24 437.505
RS-15 24 Mar 13:50:38 14:02:39 88° 121° (ESE) 14:15:06 29.354- 29.394
NO-84 24 Mar 13:55:42 13:58:20 23° 31° (NNE) 14:01:06 435.350 FM
SPROUT 24 Mar 14:08:23 14:12:09 30° 291° (WNW) 14:15:53 437.525
DX 1 24 Mar 14:26:15 14:30:25 43° 289° (WNW) 14:34:33 434.975-435.025
ITUPSAT 1 24 Mar 14:35:33 14:37:24 12° 90° (E) 14:39:15 437.325
VELOX 1 24 Mar 14:42:28 14:44:50 14° 298° (WNW) 14:47:12 145.980
Gurwin Techsat 1B 24 Mar 14:56:39 15:01:13 29° 265° (W) 15:05:48 435.225
ITAMSAT 1 24 Mar 15:03:26 15:08:34 61° 72° (ENE) 15:13:45 435.822/435.867
Oscar 19 24 Mar 15:04:26 15:06:57 14° 270° (W) 15:09:29 437.125/150
AO-7 24 Mar 15:06:30 15:14:44 67° 67° (ENE) 15:22:57 .
UKube-1 24 Mar 15:12:08 15:15:21 21° 294° (WNW) 15:18:34 .
